WetterOnline ( http://www.wetteronline.de )

Wetter aktuell Neuruppin

Aktuelles Wetter: Neuruppin (45m)

6-stündlich | Neueste Meldungen
Ortszeit Temperatur Wetter
So, 21.10. 8:00 2.3° C wolkenlos
So, 21.10. 2:00 7.8° C wolkig
Sa, 20.10. 20:00 9.3° C wolkig
Sa, 20.10. 14:00 11.2° C bedeckt
Sa, 20.10. 8:00 5.5° C bedeckt
Sa, 20.10. 2:00 2.5° C wolkig
Fr, 19.10. 20:00 5.9° C wolkenlos
Fr, 19.10. 14:00 12.2° C leicht bewölkt
Ortszeit Temperatur Wetter
So, 21.10. 13:30 13.9° C fast wolkenlos
So, 21.10. 13:20 13.9° C fast wolkenlos
So, 21.10. 13:10 14.1° C fast wolkenlos
So, 21.10. 13:00 13.7° C fast wolkenlos
So, 21.10. 12:50 13.7° C fast wolkenlos
So, 21.10. 12:40 13.2° C wolkenlos
So, 21.10. 12:30 12.6° C wolkenlos
So, 21.10. 12:00 11.2° C wolkenlos
So, 21.10. 11:30 9.7° C wolkenlos
So, 21.10. 11:00 8.1° C fast wolkenlos
So, 21.10. 10:30 6.4° C leicht bewölkt
So, 21.10. 10:00 5.3° C -
Ortszeit Relative Feuchte Sichtweite
So, 21.10. 8:00 96% 0.7 km
So, 21.10. 2:00 88% 10 km
Sa, 20.10. 20:00 75% 11 km
Sa, 20.10. 14:00 57% 10 km
Sa, 20.10. 8:00 89% 10 km
Sa, 20.10. 2:00 96% 8 km
Fr, 19.10. 20:00 89% 10 km
Fr, 19.10. 14:00 62% 10 km
Ortszeit Relative Feuchte Sichtweite
So, 21.10. 13:30 67% 10 km
So, 21.10. 13:20 67% -
So, 21.10. 13:10 67% -
So, 21.10. 13:00 71% 10 km
So, 21.10. 12:50 71% -
So, 21.10. 12:40 74% -
So, 21.10. 12:30 78% 10 km
So, 21.10. 12:00 81% 11 km
So, 21.10. 11:30 86% 10 km
So, 21.10. 11:00 90% 10 km
So, 21.10. 10:30 96% 1.1 km
So, 21.10. 10:00 98% 0.6 km
Ortszeit Niederschlagsmenge Niederschlagsart
So, 21.10. 8:00 0.0 l/m2 in 12 Std. -
So, 21.10. 2:00 0.0 l/m2 in 6 Std. -
Sa, 20.10. 20:00 0.0 l/m2 in 12 Std. -
Sa, 20.10. 14:00 0.0 l/m2 in 6 Std. -
Sa, 20.10. 8:00 0.0 l/m2 in 12 Std. -
Sa, 20.10. 2:00 0.0 l/m2 in 6 Std. -
Fr, 19.10. 20:00 0.0 l/m2 in 12 Std. -
Fr, 19.10. 14:00 0.0 l/m2 in 6 Std. -
Ortszeit Niederschlagsmenge Niederschlagsart
So, 21.10. 13:30 0.0 l/m2 in 1 Std. -
So, 21.10. 13:20 keine Meldung -
So, 21.10. 13:10 keine Meldung -
So, 21.10. 13:00 0.0 l/m2 in 1 Std. -
So, 21.10. 12:50 keine Meldung -
So, 21.10. 12:40 keine Meldung -
So, 21.10. 12:30 0.0 l/m2 in 1 Std. -
So, 21.10. 12:00 0.0 l/m2 in 1 Std. -
So, 21.10. 11:30 0.0 l/m2 in 1 Std. -
So, 21.10. 11:00 0.0 l/m2 in 1 Std. -
So, 21.10. 10:30 0.0 l/m2 in 1 Std. -
So, 21.10. 10:00 0.0 l/m2 in 1 Std. -
Ortszeit Stärke Spitze Richtung
km/h Bft. km/h Grad Sektor
So, 21.10. 8:00 0 0 7 - -
So, 21.10. 2:00 4 1 11 290° W
Sa, 20.10. 20:00 2 1 26 240° SW
Sa, 20.10. 14:00 9 2 24 280° W
Sa, 20.10. 8:00 6 1 9 310° NW
Sa, 20.10. 2:00 0 0 11 - -
Fr, 19.10. 20:00 0 0 14 - -
Fr, 19.10. 14:00 9 2 19 340° N
Ortszeit Stärke Spitze Richtung
km/h Bft. km/h Grad Sektor
So, 21.10. 13:30 9 2 19 220° SW
So, 21.10. 13:20 9 2 - 220° SW
So, 21.10. 13:10 6 1 - 200° S
So, 21.10. 13:00 7 2 14 190° S
So, 21.10. 12:50 7 2 - 190° S
So, 21.10. 12:40 7 2 - 190° S
So, 21.10. 12:30 6 1 13 210° SW
So, 21.10. 12:00 4 1 7 160° S
So, 21.10. 11:30 4 1 7 170° S
So, 21.10. 11:00 0 0 7 - -
So, 21.10. 10:30 0 0 7 190° S
So, 21.10. 10:00 0 0 4 - -
Ortszeit Untergrenze Bedeckung Gattung
total tief tief mittel hoch
So, 21.10. 8:00 - 0/8 0/8 - - -
So, 21.10. 2:00 3000 m 5/8 5/8 - - -
Sa, 20.10. 20:00 1800 m 8/8 1/8 - - -
Sa, 20.10. 14:00 1500 m 8/8 8/8 - - -
Sa, 20.10. 8:00 1260 m 8/8 8/8 - - -
Sa, 20.10. 2:00 1050 m 5/8 5/8 - - -
Fr, 19.10. 20:00 - 0/8 0/8 - - -
Fr, 19.10. 14:00 810 m 2/8 2/8 - - -
Ortszeit Bedeckungsgrad in Achtel und Wolkenuntergrenze
So, 21.10. 13:30 1(630m)
So, 21.10. 13:20 1(630m)
So, 21.10. 13:10 1(540m)
So, 21.10. 13:00 1(510m)
So, 21.10. 12:50 1(510m)
So, 21.10. 12:40 keine Wolken
So, 21.10. 12:30 keine Wolken
So, 21.10. 12:00 keine Wolken
So, 21.10. 11:30 keine Wolken
So, 21.10. 11:00 1(90m)
So, 21.10. 10:30 3(30m) 4(150m) 4(330m)
So, 21.10. 10:00 -
Ortszeit Luftdruck NN (hPa) Tendenz (hPa in 3 Std.)
So, 21.10. 8:00 1029 + 0,2
So, 21.10. 2:00 1029 - 0,1
Sa, 20.10. 20:00 1028 - 0,2
Sa, 20.10. 14:00 1029 + 0,2
Sa, 20.10. 8:00 1028 + 0,7
Sa, 20.10. 2:00 1027 + 0,4
Fr, 19.10. 20:00 1026 + 0,8
Fr, 19.10. 14:00 1026 - 0,4
Ortszeit Luftdruck NN (hPa) Tendenz (hPa in 3 Std.)
So, 21.10. 13:30 1029 - 0,8
So, 21.10. 13:20 1029 keine Meldung
So, 21.10. 13:10 1029 keine Meldung
So, 21.10. 13:00 1029 - 0,5
So, 21.10. 12:50 1029 keine Meldung
So, 21.10. 12:40 1029 keine Meldung
So, 21.10. 12:30 1030 0,0
So, 21.10. 12:00 1030 + 0,4
So, 21.10. 11:30 1030 + 0,7
So, 21.10. 11:00 1030 + 1,1
So, 21.10. 10:30 1030 + 1,1
So, 21.10. 10:00 1030 + 0,7
Ortszeit Schneehöhe (cm)
So, 21.10. 8:00 -
So, 21.10. 2:00 -
Sa, 20.10. 20:00 -
Sa, 20.10. 14:00 -
Sa, 20.10. 8:00 -
Sa, 20.10. 2:00 -
Fr, 19.10. 20:00 -
Fr, 19.10. 14:00 -
Ortszeit Schneehöhe (cm)
So, 21.10. 13:30 -
So, 21.10. 13:20 -
So, 21.10. 13:10 -
So, 21.10. 13:00 -
So, 21.10. 12:50 -
So, 21.10. 12:40 -
So, 21.10. 12:30 -
So, 21.10. 12:00 -
So, 21.10. 11:30 -
So, 21.10. 11:00 -
So, 21.10. 10:30 -
So, 21.10. 10:00 -
Link zu dieser Seite / Seite empfehlen

Das Wetter in ...